Time,TemperatureF,DewpointF,PressureIn,WindDirection,WindDirectionDegrees,WindSpeedMPH,WindSpeedGustMPH,Humidity,HourlyPrecipIn,Conditions,Clouds,dailyrainin,SolarRadiationWatts/m^2,SoftwareType,DateUTC
2013-06-06 00:01:00,54.5,45.7,29.68,North,0,0.0,0.0,72,0.00,,,0.00,0,WeatherCatV1.15B25,2013-06-06 04:01:00,
2013-06-06 00:06:00,54.1,45.3,29.68,North,0,0.0,0.0,72,0.00,,,0.00,0,WeatherCatV1.15B25,2013-06-06 04:06:00,
2013-06-06 00:11:00,53.7,44.9,29.68,North,0,0.0,1.0,72,0.00,,,0.00,0,WeatherCatV1.15B25,2013-06-06 04:11:00,
2013-06-06 00:16:00,53.3,44.1,29.68,North,0,0.0,0.0,71,0.00,,,0.00,0,WeatherCatV1.15B25,2013-06-06 04:16:00,
2013-06-06 00:21:00,53.1,44.3,29.68,North,0,0.0,0.0,72,0.00,,,0.00,0,WeatherCatV1.15B25,2013-06-06 04:21:00,
2013-06-06 00:26:00,52.7,43.9,29.69,North,0,0.0,0.0,72,0.00,,,0.00,0,WeatherCatV1.15B25,2013-06-06 04:26:00,
2013-06-06 00:31:00,52.4,43.6,29.69,North,0,0.0,0.0,72,0.00,,,0.00,0,WeatherCatV1.15B25,2013-06-06 04:31:00,
2013-06-06 00:36:00,52.2,43.8,29.69,North,0,0.0,0.0,73,0.00,,,0.00,0,WeatherCatV1.15B25,2013-06-06 04:36:00,
2013-06-06 00:41:00,52.0,44.0,29.68,North,0,0.0,0.0,74,0.00,,,0.00,0,WeatherCatV1.15B25,2013-06-06 04:41:00,
2013-06-06 00:46:00,51.7,43.7,29.68,North,0,0.0,0.0,74,0.00,,,0.00,0,WeatherCatV1.15B25,2013-06-06 04:46:00,
2013-06-06 00:51:00,51.5,43.5,29.68,North,0,0.0,0.0,74,0.00,,,0.00,0,WeatherCatV1.15B25,2013-06-06 04:51:00,
2013-06-06 00:56:00,51.3,43.6,29.68,North,0,0.0,0.0,75,0.00,,,0.00,0,WeatherCatV1.15B25,2013-06-06 04:56:00,
2013-06-06 01:01:00,51.0,43.4,29.68,North,0,0.0,0.0,75,0.00,,,0.00,0,WeatherCatV1.15B25,2013-06-06 05:01:00,
2013-06-06 01:06:00,50.7,43.1,29.68,North,0,0.0,0.0,75,0.00,,,0.00,0,WeatherCatV1.15B25,2013-06-06 05:06:00,
2013-06-06 01:11:00,50.3,43.4,29.68,North,0,0.0,0.0,77,0.00,,,0.00,0,WeatherCatV1.15B25,2013-06-06 05:11:00,
2013-06-06 01:16:00,50.1,43.2,29.69,North,0,0.0,0.0,77,0.00,,,0.00,0,WeatherCatV1.15B25,2013-06-06 05:16:00,
2013-06-06 01:21:00,50.0,42.7,29.69,North,0,0.0,0.0,76,0.00,,,0.00,0,WeatherCatV1.15B25,2013-06-06 05:21:00,
2013-06-06 01:26:00,49.9,43.3,29.69,North,0,0.0,0.0,78,0.00,,,0.00,0,WeatherCatV1.15B25,2013-06-06 05:26:00,
2013-06-06 01:31:00,49.7,43.5,29.69,North,0,0.0,0.0,79,0.00,,,0.00,0,WeatherCatV1.15B25,2013-06-06 05:31:00,
2013-06-06 01:36:00,49.6,43.4,29.68,North,0,0.0,0.0,79,0.00,,,0.00,0,WeatherCatV1.15B25,2013-06-06 05:36:00,
2013-06-06 01:41:00,49.5,42.9,29.68,North,0,0.0,0.0,78,0.00,,,0.00,0,WeatherCatV1.15B25,2013-06-06 05:41:00,
2013-06-06 01:46:00,49.4,43.2,29.68,North,0,0.0,0.0,79,0.00,,,0.00,0,WeatherCatV1.15B25,2013-06-06 05:46:00,
2013-06-06 01:51:00,49.3,43.1,29.68,North,0,0.0,0.0,79,0.00,,,0.00,0,WeatherCatV1.15B25,2013-06-06 05:51:00,
2013-06-06 01:56:00,49.2,43.6,29.68,North,0,0.0,0.0,81,0.00,,,0.00,0,WeatherCatV1.15B25,2013-06-06 05:56:00,
2013-06-06 02:01:00,49.2,43.6,29.69,North,0,0.0,0.0,81,0.00,,,0.00,0,WeatherCatV1.15B25,2013-06-06 06:01:00,
2013-06-06 02:06:00,49.1,43.5,29.69,North,355,0.0,1.0,81,0.00,,,0.00,0,WeatherCatV1.15B25,2013-06-06 06:06:00,
2013-06-06 02:11:00,49.0,43.7,29.69,North,355,0.0,0.0,82,0.00,,,0.00,0,WeatherCatV1.15B25,2013-06-06 06:11:00,
2013-06-06 02:16:00,48.9,43.3,29.69,North,355,0.0,0.0,81,0.00,,,0.00,0,WeatherCatV1.15B25,2013-06-06 06:16:00,
2013-06-06 02:21:00,48.9,43.3,29.69,North,355,0.0,1.0,81,0.00,,,0.00,0,WeatherCatV1.15B25,2013-06-06 06:21:00,
2013-06-06 02:26:00,48.8,43.2,29.69,North,355,0.0,1.0,81,0.00,,,0.00,0,WeatherCatV1.15B25,2013-06-06 06:26:00,
2013-06-06 02:31:00,48.7,43.1,29.69,North,355,0.0,1.0,81,0.00,,,0.00,0,WeatherCatV1.15B25,2013-06-06 06:31:00,
2013-06-06 02:36:00,48.6,42.7,29.69,North,355,0.0,0.0,80,0.00,,,0.00,0,WeatherCatV1.15B25,2013-06-06 06:36:00,
2013-06-06 02:41:00,48.5,42.9,29.69,North,355,0.0,0.0,81,0.00,,,0.00,0,WeatherCatV1.15B25,2013-06-06 06:41:00,
2013-06-06 02:46:00,48.5,43.3,29.69,North,355,0.0,0.0,82,0.00,,,0.00,0,WeatherCatV1.15B25,2013-06-06 06:46:00,
2013-06-06 02:51:00,48.5,43.3,29.69,North,355,0.0,2.0,82,0.00,,,0.00,0,WeatherCatV1.15B25,2013-06-06 06:51:00,
2013-06-06 02:56:00,48.5,43.3,29.69,North,355,0.0,0.0,82,0.00,,,0.00,0,WeatherCatV1.15B25,2013-06-06 06:56:00,
2013-06-06 03:01:00,48.4,43.2,29.69,North,355,0.0,0.0,82,0.00,,,0.00,0,WeatherCatV1.15B25,2013-06-06 07:01:00,
2013-06-06 03:06:00,48.5,43.6,29.69,North,355,0.0,0.0,83,0.00,,,0.00,0,WeatherCatV1.15B25,2013-06-06 07:06:00,
2013-06-06 03:11:00,48.5,43.6,29.70,North,355,0.0,0.0,83,0.00,,,0.00,0,WeatherCatV1.15B25,2013-06-06 07:11:00,
2013-06-06 03:16:00,48.5,43.6,29.69,North,355,0.0,0.0,83,0.00,,,0.00,0,WeatherCatV1.15B25,2013-06-06 07:16:00,
2013-06-06 03:21:00,48.5,43.6,29.69,North,355,0.0,0.0,83,0.00,,,0.00,0,WeatherCatV1.15B25,2013-06-06 07:21:00,
2013-06-06 03:26:00,48.5,43.6,29.69,North,355,0.0,0.0,83,0.00,,,0.00,0,WeatherCatV1.15B25,2013-06-06 07:26:00,
2013-06-06 03:31:00,48.6,43.7,29.69,North,355,0.0,0.0,83,0.00,,,0.00,0,WeatherCatV1.15B25,2013-06-06 07:31:00,
2013-06-06 03:36:00,48.6,43.7,29.69,North,355,0.0,0.0,83,0.00,,,0.00,0,WeatherCatV1.15B25,2013-06-06 07:36:00,
2013-06-06 03:41:00,48.6,43.7,29.69,North,355,0.0,0.0,83,0.00,,,0.00,0,WeatherCatV1.15B25,2013-06-06 07:41:00,
2013-06-06 03:46:00,48.7,43.8,29.69,North,355,0.0,0.0,83,0.00,,,0.00,0,WeatherCatV1.15B25,2013-06-06 07:46:00,
2013-06-06 03:51:00,48.7,43.8,29.70,North,355,0.0,0.0,83,0.00,,,0.00,0,WeatherCatV1.15B25,2013-06-06 07:51:00,
2013-06-06 03:56:00,48.8,43.9,29.69,North,355,0.0,0.0,83,0.00,,,0.00,0,WeatherCatV1.15B25,2013-06-06 07:56:00,
2013-06-06 04:01:00,48.8,43.9,29.69,North,355,0.0,0.0,83,0.00,,,0.00,0,WeatherCatV1.15B25,2013-06-06 08:01:00,
2013-06-06 04:06:00,48.9,44.0,29.69,North,355,0.0,0.0,83,0.00,,,0.00,0,WeatherCatV1.15B25,2013-06-06 08:06:00,
2013-06-06 04:11:00,49.0,44.4,29.69,North,355,0.0,0.0,84,0.00,,,0.00,0,WeatherCatV1.15B25,2013-06-06 08:11:00,
2013-06-06 04:16:00,49.0,44.4,29.70,North,355,0.0,0.0,84,0.00,,,0.00,0,WeatherCatV1.15B25,2013-06-06 08:16:00,
2013-06-06 04:21:00,49.1,44.5,29.70,North,355,0.0,0.0,84,0.00,,,0.00,0,WeatherCatV1.15B25,2013-06-06 08:21:00,
2013-06-06 04:26:00,49.1,44.5,29.70,North,355,0.0,0.0,84,0.00,,,0.00,0,WeatherCatV1.15B25,2013-06-06 08:26:00,
2013-06-06 04:31:00,49.1,43.8,29.69,North,355,0.0,0.0,82,0.00,,,0.00,0,WeatherCatV1.15B25,2013-06-06 08:31:00,
2013-06-06 04:36:00,49.2,44.3,29.70,North,355,0.0,0.0,83,0.00,,,0.00,0,WeatherCatV1.15B25,2013-06-06 08:36:00,
2013-06-06 04:41:00,49.2,44.3,29.70,North,355,0.0,0.0,83,0.00,,,0.00,0,WeatherCatV1.15B25,2013-06-06 08:41:00,
2013-06-06 04:46:00,49.3,44.7,29.70,North,355,0.0,0.0,84,0.00,,,0.00,0,WeatherCatV1.15B25,2013-06-06 08:46:00,
2013-06-06 04:51:00,49.4,44.8,29.70,North,355,0.0,0.0,84,0.00,,,0.00,0,WeatherCatV1.15B25,2013-06-06 08:51:00,
2013-06-06 04:56:00,49.4,44.5,29.70,North,355,0.0,0.0,83,0.00,,,0.00,0,WeatherCatV1.15B25,2013-06-06 08:56:00,
2013-06-06 05:01:00,49.4,44.8,29.70,North,355,0.0,0.0,84,0.00,,,0.00,0,WeatherCatV1.15B25,2013-06-06 09:01:00,
2013-06-06 05:06:00,49.4,44.8,29.70,North,355,0.0,0.0,84,0.00,,,0.00,0,WeatherCatV1.15B25,2013-06-06 09:06:00,
2013-06-06 05:11:00,49.4,44.8,29.70,North,355,0.0,0.0,84,0.00,,,0.00,0,WeatherCatV1.15B25,2013-06-06 09:11:00,
2013-06-06 05:16:00,49.5,45.2,29.70,North,355,0.0,0.0,85,0.00,,,0.00,0,WeatherCatV1.15B25,2013-06-06 09:16:00,
2013-06-06 05:21:00,49.5,45.2,29.70,North,355,0.0,0.0,85,0.00,,,0.00,0,WeatherCatV1.15B25,2013-06-06 09:21:00,
2013-06-06 05:26:00,49.6,45.3,29.70,North,355,0.0,0.0,85,0.00,,,0.00,0,WeatherCatV1.15B25,2013-06-06 09:26:00,
2013-06-06 05:31:00,49.6,45.3,29.70,North,355,0.0,0.0,85,0.00,,,0.00,0,WeatherCatV1.15B25,2013-06-06 09:31:00,
2013-06-06 05:36:00,49.7,45.7,29.70,North,355,0.0,0.0,86,0.00,,,0.00,5,WeatherCatV1.15B25,2013-06-06 09:36:00,
2013-06-06 05:41:00,49.8,46.1,29.70,North,355,0.0,1.0,87,0.00,,,0.00,5,WeatherCatV1.15B25,2013-06-06 09:41:00,
2013-06-06 05:46:00,49.9,46.2,29.70,North,355,0.0,0.0,87,0.00,,,0.00,9,WeatherCatV1.15B25,2013-06-06 09:46:00,
2013-06-06 05:51:00,50.0,46.0,29.70,North,355,0.0,0.0,86,0.00,,,0.00,14,WeatherCatV1.15B25,2013-06-06 09:51:00,
2013-06-06 05:56:00,50.1,45.8,29.70,North,355,0.0,0.0,85,0.00,,,0.00,19,WeatherCatV1.15B25,2013-06-06 09:56:00,
2013-06-06 06:01:00,50.2,45.9,29.70,North,355,0.0,0.0,85,0.00,,,0.00,32,WeatherCatV1.15B25,2013-06-06 10:01:00,
2013-06-06 06:06:00,50.2,45.9,29.70,North,355,0.0,0.0,85,0.00,,,0.00,30,WeatherCatV1.15B25,2013-06-06 10:06:00,
2013-06-06 06:11:00,50.3,46.0,29.71,North,355,0.0,0.0,85,0.00,,,0.00,25,WeatherCatV1.15B25,2013-06-06 10:11:00,
2013-06-06 06:16:00,50.3,46.0,29.71,North,355,0.0,0.0,85,0.00,,,0.00,25,WeatherCatV1.15B25,2013-06-06 10:16:00,
2013-06-06 06:21:00,50.4,46.1,29.71,North,355,0.0,0.0,85,0.00,,,0.00,21,WeatherCatV1.15B25,2013-06-06 10:21:00,
2013-06-06 06:26:00,50.4,46.1,29.71,North,355,0.0,0.0,85,0.00,,,0.00,14,WeatherCatV1.15B25,2013-06-06 10:26:00,
2013-06-06 06:31:00,50.5,46.2,29.72,North,355,0.0,0.0,85,0.00,,,0.00,14,WeatherCatV1.15B25,2013-06-06 10:31:00,
2013-06-06 06:36:00,50.6,46.3,29.72,North,355,0.0,0.0,85,0.00,,,0.00,12,WeatherCatV1.15B25,2013-06-06 10:36:00,
2013-06-06 06:41:00,50.6,46.6,29.72,North,355,0.0,0.0,86,0.00,,,0.00,16,WeatherCatV1.15B25,2013-06-06 10:41:00,
2013-06-06 06:46:00,50.7,46.7,29.72,North,355,0.0,0.0,86,0.00,,,0.00,19,WeatherCatV1.15B25,2013-06-06 10:46:00,
2013-06-06 06:51:00,50.8,46.5,29.72,North,355,0.0,0.0,85,0.00,,,0.00,25,WeatherCatV1.15B25,2013-06-06 10:51:00,
2013-06-06 06:56:00,50.9,46.9,29.72,North,355,0.0,0.0,86,0.00,,,0.00,26,WeatherCatV1.15B25,2013-06-06 10:56:00,
2013-06-06 07:01:00,51.0,47.0,29.73,North,355,0.0,0.0,86,0.00,,,0.00,28,WeatherCatV1.15B25,2013-06-06 11:01:00,
2013-06-06 07:06:00,51.1,47.1,29.73,North,355,0.0,0.0,86,0.00,,,0.00,25,WeatherCatV1.15B25,2013-06-06 11:06:00,
2013-06-06 07:11:00,51.2,47.2,29.73,North,355,0.0,0.0,86,0.00,,,0.00,35,WeatherCatV1.15B25,2013-06-06 11:11:00,
2013-06-06 07:16:00,51.3,46.9,29.73,North,355,0.0,0.0,85,0.00,,,0.00,42,WeatherCatV1.15B25,2013-06-06 11:16:00,
2013-06-06 07:21:00,51.4,47.0,29.73,North,355,0.0,0.0,85,0.00,,,0.00,47,WeatherCatV1.15B25,2013-06-06 11:21:00,
2013-06-06 07:26:00,51.4,46.7,29.73,North,355,0.0,0.0,84,0.00,,,0.00,47,WeatherCatV1.15B25,2013-06-06 11:26:00,
2013-06-06 07:31:00,51.6,47.2,29.74,North,355,0.0,0.0,85,0.00,,,0.00,47,WeatherCatV1.15B25,2013-06-06 11:31:00,
2013-06-06 07:36:00,51.8,47.4,29.74,North,355,0.0,0.0,85,0.00,,,0.00,40,WeatherCatV1.15B25,2013-06-06 11:36:00,
2013-06-06 07:41:00,52.0,47.3,29.74,North,355,0.0,1.0,84,0.00,,,0.00,47,WeatherCatV1.15B25,2013-06-06 11:41:00,
2013-06-06 07:46:00,52.2,45.9,29.74,North,355,0.0,0.0,79,0.00,,,0.00,51,WeatherCatV1.15B25,2013-06-06 11:46:00,
2013-06-06 07:51:00,52.4,44.7,29.74,North,355,0.0,0.0,75,0.00,,,0.00,51,WeatherCatV1.15B25,2013-06-06 11:51:00,
2013-06-06 07:56:00,52.6,45.3,29.74,North,355,0.0,0.0,76,0.00,,,0.00,63,WeatherCatV1.15B25,2013-06-06 11:56:00,
2013-06-06 08:01:00,52.8,46.5,29.74,North,355,0.0,0.0,79,0.00,,,0.00,72,WeatherCatV1.15B25,2013-06-06 12:01:00,
2013-06-06 08:06:00,53.1,47.4,29.74,North,355,0.0,0.0,81,0.00,,,0.00,77,WeatherCatV1.15B25,2013-06-06 12:06:00,
2013-06-06 08:11:00,53.3,45.9,29.74,North,355,0.0,1.0,76,0.00,,,0.00,88,WeatherCatV1.15B25,2013-06-06 12:11:00,
2013-06-06 08:16:00,53.6,44.8,29.74,North,355,0.0,0.0,72,0.00,,,0.00,67,WeatherCatV1.15B25,2013-06-06 12:16:00,
2013-06-06 08:21:00,53.8,45.3,29.74,North,355,0.0,0.0,73,0.00,,,0.00,77,WeatherCatV1.15B25,2013-06-06 12:21:00,
2013-06-06 08:26:00,54.1,46.0,29.74,North,355,0.0,0.0,74,0.00,,,0.00,91,WeatherCatV1.15B25,2013-06-06 12:26:00,
2013-06-06 08:31:00,54.4,45.2,29.74,North,355,0.0,0.0,71,0.00,,,0.00,79,WeatherCatV1.15B25,2013-06-06 12:31:00,
2013-06-06 08:36:00,54.7,45.1,29.74,North,355,0.0,0.0,70,0.00,,,0.00,104,WeatherCatV1.15B25,2013-06-06 12:36:00,
2013-06-06 08:41:00,55.1,47.7,29.74,North,355,0.0,0.0,76,0.00,,,0.00,100,WeatherCatV1.15B25,2013-06-06 12:41:00,
2013-06-06 08:46:00,55.4,47.6,29.74,North,355,0.0,0.0,75,0.00,,,0.00,88,WeatherCatV1.15B25,2013-06-06 12:46:00,
2013-06-06 08:51:00,55.7,47.5,29.75,North,355,0.0,0.0,74,0.00,,,0.00,100,WeatherCatV1.15B25,2013-06-06 12:51:00,
2013-06-06 08:57:00,55.9,47.7,29.74,North,355,0.0,0.0,74,0.00,,,0.00,97,WeatherCatV1.15B25,2013-06-06 12:57:00,
2013-06-06 08:58:00,56.0,47.8,29.74,North,355,0.0,0.0,74,0.00,,,0.00,100,WeatherCatV1.15B25,2013-06-06 12:58:00,
2013-06-06 09:02:00,56.2,46.9,29.74,North,355,0.0,0.0,71,0.00,,,0.00,97,WeatherCatV1.15B25,2013-06-06 13:02:00,
2013-06-06 09:07:00,56.5,47.2,29.74,North,355,0.0,0.0,71,0.00,,,0.00,91,WeatherCatV1.15B25,2013-06-06 13:07:00,
2013-06-06 09:10:00,56.6,47.7,29.74,North,355,0.0,2.0,72,0.00,,,0.00,88,WeatherCatV1.15B25,2013-06-06 13:10:00,
2013-06-06 09:11:00,56.7,47.8,29.74,North,355,0.0,0.0,72,0.00,,,0.00,86,WeatherCatV1.15B25,2013-06-06 13:11:00,
2013-06-06 09:12:00,56.8,47.9,29.74,North,355,0.0,0.0,72,0.00,,,0.00,79,WeatherCatV1.15B25,2013-06-06 13:12:00,
2013-06-06 09:17:00,57.0,48.1,29.74,North,355,0.0,0.0,72,0.00,,,0.00,81,WeatherCatV1.15B25,2013-06-06 13:17:00,
2013-06-06 09:22:00,57.2,47.9,29.74,North,355,0.0,0.0,71,0.00,,,0.00,91,WeatherCatV1.15B25,2013-06-06 13:22:00,
2013-06-06 09:27:00,57.4,48.4,29.74,North,355,0.0,1.0,72,0.00,,,0.00,100,WeatherCatV1.15B25,2013-06-06 13:27:00,
2013-06-06 09:32:00,57.7,48.0,29.74,North,355,0.0,1.0,70,0.00,,,0.00,107,WeatherCatV1.15B25,2013-06-06 13:32:00,
2013-06-06 09:37:00,57.9,47.4,29.74,North,355,0.0,0.0,68,0.00,,,0.00,120,WeatherCatV1.15B25,2013-06-06 13:37:00,
2013-06-06 09:42:00,58.1,47.2,29.74,North,355,0.0,0.0,67,0.00,,,0.00,121,WeatherCatV1.15B25,2013-06-06 13:42:00,
2013-06-06 09:47:00,58.4,47.9,29.74,North,355,0.0,0.0,68,0.00,,,0.00,120,WeatherCatV1.15B25,2013-06-06 13:47:00,
2013-06-06 09:52:00,58.7,48.6,29.74,North,355,0.0,0.0,69,0.00,,,0.00,109,WeatherCatV1.15B25,2013-06-06 13:52:00,
2013-06-06 09:57:00,59.0,48.5,29.74,North,355,0.0,0.0,68,0.00,,,0.00,121,WeatherCatV1.15B25,2013-06-06 13:57:00,
2013-06-06 10:02:00,59.0,49.2,29.73,North,355,0.0,0.0,70,0.00,,,0.00,125,WeatherCatV1.15B25,2013-06-06 14:02:00,
2013-06-06 10:07:00,59.3,47.5,29.73,North,355,0.0,0.0,65,0.00,,,0.00,116,WeatherCatV1.15B25,2013-06-06 14:07:00,
2013-06-06 10:12:00,59.5,48.1,29.73,North,355,0.0,0.0,66,0.00,,,0.00,123,WeatherCatV1.15B25,2013-06-06 14:12:00,
2013-06-06 10:17:00,59.8,45.4,29.73,North,355,0.0,0.0,59,0.00,,,0.00,118,WeatherCatV1.15B25,2013-06-06 14:17:00,
2013-06-06 10:21:00,59.9,45.5,29.73,North,355,0.0,0.0,59,0.00,,,0.00,105,WeatherCatV1.15B25,2013-06-06 14:21:00,
2013-06-06 10:22:00,59.9,45.1,29.73,North,355,0.0,0.0,58,0.00,,,0.00,118,WeatherCatV1.15B25,2013-06-06 14:22:00,
2013-06-06 10:26:00,60.1,46.2,29.73,North,355,0.0,0.0,60,0.00,,,0.00,128,WeatherCatV1.15B25,2013-06-06 14:26:00,
2013-06-06 10:31:00,60.4,44.6,29.73,North,355,0.0,1.0,56,0.00,,,0.00,202,WeatherCatV1.15B25,2013-06-06 14:31:00,
2013-06-06 10:36:00,60.7,44.0,29.72,North,355,0.0,1.0,54,0.00,,,0.00,176,WeatherCatV1.15B25,2013-06-06 14:36:00,
2013-06-06 10:41:00,60.9,44.1,29.72,North,355,0.0,1.0,54,0.00,,,0.00,162,WeatherCatV1.15B25,2013-06-06 14:41:00,
2013-06-06 10:46:00,61.2,42.9,29.72,North,355,0.0,0.0,51,0.00,,,0.00,163,WeatherCatV1.15B25,2013-06-06 14:46:00,
2013-06-06 10:51:00,61.4,41.5,29.72,North,355,0.0,1.0,48,0.00,,,0.00,149,WeatherCatV1.15B25,2013-06-06 14:51:00,
2013-06-06 10:56:00,61.8,44.0,29.71,North,355,0.0,1.0,52,0.00,,,0.00,141,WeatherCatV1.15B25,2013-06-06 14:56:00,
2013-06-06 11:01:00,62.1,43.2,29.72,North,355,0.0,0.0,50,0.00,,,0.00,178,WeatherCatV1.15B25,2013-06-06 15:01:00,
2013-06-06 11:06:00,62.4,44.0,29.71,North,355,0.0,0.0,51,0.00,,,0.00,181,WeatherCatV1.15B25,2013-06-06 15:06:00,
2013-06-06 11:11:00,62.7,46.8,29.72,North,355,0.0,0.0,56,0.00,,,0.00,116,WeatherCatV1.15B25,2013-06-06 15:11:00,
2013-06-06 11:16:00,63.0,44.6,29.72,North,355,0.0,1.0,51,0.00,,,0.00,174,WeatherCatV1.15B25,2013-06-06 15:16:00,
2013-06-06 11:21:00,63.4,45.0,29.72,North,355,0.0,0.0,51,0.00,,,0.00,214,WeatherCatV1.15B25,2013-06-06 15:21:00,
2013-06-06 11:26:00,63.7,44.2,29.72,North,355,0.0,0.0,49,0.00,,,0.00,185,WeatherCatV1.15B25,2013-06-06 15:26:00,
2013-06-06 11:31:00,64.0,43.4,29.72,North,355,0.0,1.0,47,0.00,,,0.00,132,WeatherCatV1.15B25,2013-06-06 15:31:00,
2013-06-06 11:36:00,64.2,43.5,29.72,North,355,0.0,0.0,47,0.00,,,0.00,135,WeatherCatV1.15B25,2013-06-06 15:36:00,
2013-06-06 11:41:00,64.5,44.4,29.71,NNW,345,0.0,0.0,48,0.00,,,0.00,128,WeatherCatV1.15B25,2013-06-06 15:41:00,
2013-06-06 11:46:00,64.7,44.6,29.71,NNW,345,0.0,0.0,48,0.00,,,0.00,146,WeatherCatV1.15B25,2013-06-06 15:46:00,
2013-06-06 11:51:00,64.9,44.2,29.71,NNW,345,0.0,0.0,47,0.00,,,0.00,139,WeatherCatV1.15B25,2013-06-06 15:51:00,
2013-06-06 11:56:00,65.1,44.4,29.71,NNW,345,0.0,0.0,47,0.00,,,0.00,135,WeatherCatV1.15B25,2013-06-06 15:56:00,
2013-06-06 12:01:00,65.2,42.1,29.71,NNW,345,0.0,0.0,43,0.00,,,0.00,132,WeatherCatV1.15B25,2013-06-06 16:01:00,
2013-06-06 12:06:00,65.4,44.6,29.71,NNW,345,0.0,1.0,47,0.00,,,0.00,125,WeatherCatV1.15B25,2013-06-06 16:06:00,
2013-06-06 12:11:00,65.5,42.4,29.71,NNW,342,0.0,3.0,43,0.00,,,0.00,146,WeatherCatV1.15B25,2013-06-06 16:11:00,
2013-06-06 12:16:00,65.7,43.2,29.70,NNW,342,0.0,2.0,44,0.00,,,0.00,146,WeatherCatV1.15B25,2013-06-06 16:16:00,
2013-06-06 12:21:00,65.7,44.3,29.70,NNW,342,0.0,0.0,46,0.00,,,0.00,125,WeatherCatV1.15B25,2013-06-06 16:21:00,
2013-06-06 12:26:00,65.9,44.0,29.70,NNW,342,0.0,0.0,45,0.00,,,0.00,128,WeatherCatV1.15B25,2013-06-06 16:26:00,
2013-06-06 12:31:00,65.9,45.1,29.70,NNW,342,0.0,1.0,47,0.00,,,0.00,134,WeatherCatV1.15B25,2013-06-06 16:31:00,
2013-06-06 12:36:00,66.0,45.7,29.70,NNW,342,0.0,0.0,48,0.00,,,0.00,139,WeatherCatV1.15B25,2013-06-06 16:36:00,
2013-06-06 12:41:00,66.1,46.9,29.69,NNW,342,0.0,1.0,50,0.00,,,0.00,130,WeatherCatV1.15B25,2013-06-06 16:41:00,
2013-06-06 12:46:00,66.2,46.5,29.69,NNW,342,0.0,1.0,49,0.00,,,0.00,125,WeatherCatV1.15B25,2013-06-06 16:46:00,
2013-06-06 12:51:00,66.3,46.0,29.69,NNW,342,0.0,0.0,48,0.00,,,0.00,132,WeatherCatV1.15B25,2013-06-06 16:51:00,
2013-06-06 12:56:00,66.5,46.2,29.69,NNW,342,2.0,2.0,48,0.00,,,0.00,127,WeatherCatV1.15B25,2013-06-06 16:56:00,
2013-06-06 13:01:00,66.5,45.6,29.69,NNW,343,1.0,2.0,47,0.00,,,0.00,127,WeatherCatV1.15B25,2013-06-06 17:01:00,
2013-06-06 13:06:00,66.5,47.3,29.68,NNW,343,0.0,2.0,50,0.00,,,0.00,227,WeatherCatV1.15B25,2013-06-06 17:06:00,
2013-06-06 13:11:00,66.5,47.3,29.68,North,355,0.0,0.0,50,0.00,,,0.00,120,WeatherCatV1.15B25,2013-06-06 17:11:00,
2013-06-06 13:16:00,66.5,46.2,29.68,North,355,0.0,0.0,48,0.00,,,0.00,109,WeatherCatV1.15B25,2013-06-06 17:16:00,
2013-06-06 13:21:00,66.6,47.4,29.68,North,355,0.0,1.0,50,0.00,,,0.00,107,WeatherCatV1.15B25,2013-06-06 17:21:00,
2013-06-06 13:26:00,66.7,46.4,29.68,North,355,0.0,0.0,48,0.00,,,0.00,109,WeatherCatV1.15B25,2013-06-06 17:26:00,
2013-06-06 13:31:00,66.9,45.4,29.68,North,355,0.0,0.0,46,0.00,,,0.00,91,WeatherCatV1.15B25,2013-06-06 17:31:00,
2013-06-06 13:36:00,67.2,47.9,29.67,North,355,0.0,0.0,50,0.00,,,0.00,114,WeatherCatV1.15B25,2013-06-06 17:36:00,
2013-06-06 13:41:00,67.5,48.2,29.68,North,355,0.0,0.0,50,0.00,,,0.00,135,WeatherCatV1.15B25,2013-06-06 17:41:00,
2013-06-06 13:46:00,67.7,46.2,29.68,North,355,0.0,0.0,46,0.00,,,0.00,155,WeatherCatV1.15B25,2013-06-06 17:46:00,
2013-06-06 13:51:00,67.9,45.8,29.67,North,355,0.0,1.0,45,0.00,,,0.00,137,WeatherCatV1.15B25,2013-06-06 17:51:00,
2013-06-06 13:56:00,68.2,44.8,29.67,North,355,0.0,1.0,43,0.00,,,0.00,144,WeatherCatV1.15B25,2013-06-06 17:56:00,
2013-06-06 14:01:00,68.5,45.7,29.67,North,355,0.0,1.0,44,0.00,,,0.00,192,WeatherCatV1.15B25,2013-06-06 18:01:00,
2013-06-06 14:06:00,68.8,47.2,29.67,North,355,0.0,0.0,46,0.00,,,0.00,329,WeatherCatV1.15B25,2013-06-06 18:06:00,
2013-06-06 14:11:00,69.0,45.6,29.67,North,355,0.0,0.0,43,0.00,,,0.00,181,WeatherCatV1.15B25,2013-06-06 18:11:00,
2013-06-06 14:16:00,69.3,47.0,29.67,North,355,0.0,0.0,45,0.00,,,0.00,181,WeatherCatV1.15B25,2013-06-06 18:16:00,
2013-06-06 14:21:00,69.5,47.2,29.67,North,355,0.0,1.0,45,0.00,,,0.00,137,WeatherCatV1.15B25,2013-06-06 18:21:00,
2013-06-06 14:26:00,69.8,45.7,29.67,WSW,246,0.0,0.0,42,0.00,,,0.00,172,WeatherCatV1.15B25,2013-06-06 18:26:00,
2013-06-06 14:31:00,70.1,45.9,29.67,West,266,0.0,0.0,42,0.00,,,0.00,457,WeatherCatV1.15B25,2013-06-06 18:31:00,
2013-06-06 14:36:00,70.4,48.0,29.67,North,5,0.0,1.0,45,0.00,,,0.00,257,WeatherCatV1.15B25,2013-06-06 18:36:00,
2013-06-06 14:41:00,70.6,46.4,29.66,North,5,0.0,0.0,42,0.00,,,0.00,237,WeatherCatV1.15B25,2013-06-06 18:41:00,
2013-06-06 14:46:00,70.8,47.8,29.67,North,5,0.0,0.0,44,0.00,,,0.00,221,WeatherCatV1.15B25,2013-06-06 18:46:00,
2013-06-06 14:51:00,70.8,46.6,29.66,North,5,0.0,0.0,42,0.00,,,0.00,127,WeatherCatV1.15B25,2013-06-06 18:51:00,
2013-06-06 14:56:00,71.0,46.7,29.66,North,5,0.0,0.0,42,0.00,,,0.00,141,WeatherCatV1.15B25,2013-06-06 18:56:00,
2013-06-06 15:01:00,71.0,47.4,29.66,North,5,0.0,0.0,43,0.00,,,0.00,257,WeatherCatV1.15B25,2013-06-06 19:01:00,
2013-06-06 15:06:00,71.0,46.7,29.66,North,5,0.0,0.0,42,0.00,,,0.00,185,WeatherCatV1.15B25,2013-06-06 19:06:00,
2013-06-06 15:11:00,71.0,46.1,29.66,North,5,0.0,0.0,41,0.00,,,0.00,158,WeatherCatV1.15B25,2013-06-06 19:11:00,
2013-06-06 15:16:00,71.1,48.1,29.66,North,5,0.0,0.0,44,0.00,,,0.00,162,WeatherCatV1.15B25,2013-06-06 19:16:00,
2013-06-06 15:21:00,71.1,48.7,29.66,North,5,0.0,0.0,45,0.00,,,0.00,153,WeatherCatV1.15B25,2013-06-06 19:21:00,
2013-06-06 15:26:00,71.1,49.3,29.66,North,5,0.0,0.0,46,0.00,,,0.00,169,WeatherCatV1.15B25,2013-06-06 19:26:00,
2013-06-06 15:31:00,71.1,46.2,29.65,North,5,0.0,0.0,41,0.00,,,0.00,181,WeatherCatV1.15B25,2013-06-06 19:31:00,
2013-06-06 15:33:00,71.2,46.9,29.65,North,5,0.0,0.0,42,0.00,,,0.00,162,WeatherCatV1.15B25,2013-06-06 19:33:00,
2013-06-06 15:37:00,71.2,47.5,29.65,North,5,0.0,0.0,43,0.00,,,0.00,130,WeatherCatV1.15B25,2013-06-06 19:37:00,
2013-06-06 15:42:00,71.2,47.5,29.65,North,5,0.0,1.0,43,0.00,,,0.00,120,WeatherCatV1.15B25,2013-06-06 19:42:00,
2013-06-06 15:45:00,71.1,48.7,29.65,North,5,0.0,0.0,45,0.00,,,0.00,105,WeatherCatV1.15B25,2013-06-06 19:45:00,
2013-06-06 15:46:00,71.0,48.6,29.65,North,5,0.0,1.0,45,0.00,,,0.00,88,WeatherCatV1.15B25,2013-06-06 19:46:00,
2013-06-06 15:51:00,70.9,50.2,29.65,North,5,0.0,0.0,48,0.00,,,0.00,95,WeatherCatV1.15B25,2013-06-06 19:51:00,
2013-06-06 15:56:00,70.8,49.0,29.65,North,5,0.0,0.0,46,0.00,,,0.00,97,WeatherCatV1.15B25,2013-06-06 19:56:00,
2013-06-06 16:01:00,70.6,51.0,29.65,North,5,0.0,0.0,50,0.00,,,0.00,88,WeatherCatV1.15B25,2013-06-06 20:01:00,
2013-06-06 16:06:00,70.4,50.3,29.65,North,5,0.0,0.0,49,0.00,,,0.00,74,WeatherCatV1.15B25,2013-06-06 20:06:00,
2013-06-06 16:11:00,70.2,49.6,29.65,North,5,0.0,0.0,48,0.00,,,0.00,77,WeatherCatV1.15B25,2013-06-06 20:11:00,
2013-06-06 16:16:00,70.1,50.0,29.65,North,5,0.0,0.0,49,0.00,,,0.00,70,WeatherCatV1.15B25,2013-06-06 20:16:00,
2013-06-06 16:21:00,69.9,49.9,29.65,NNW,336,0.0,0.0,49,0.00,,,0.00,65,WeatherCatV1.15B25,2013-06-06 20:21:00,
2013-06-06 16:26:00,69.7,51.3,29.65,NNW,336,0.0,0.0,52,0.00,,,0.00,60,WeatherCatV1.15B25,2013-06-06 20:26:00,
2013-06-06 16:31:00,69.5,50.0,29.65,NNW,336,0.0,0.0,50,0.00,,,0.00,62,WeatherCatV1.15B25,2013-06-06 20:31:00,
2013-06-06 16:36:00,69.4,51.5,29.65,NNW,336,0.0,0.0,53,0.00,,,0.00,65,WeatherCatV1.15B25,2013-06-06 20:36:00,
2013-06-06 16:41:00,69.2,50.3,29.65,NNW,336,0.0,1.0,51,0.00,,,0.00,70,WeatherCatV1.15B25,2013-06-06 20:41:00,
2013-06-06 16:46:00,69.0,50.1,29.65,NNW,336,0.0,0.0,51,0.00,,,0.00,62,WeatherCatV1.15B25,2013-06-06 20:46:00,
2013-06-06 16:51:00,68.8,49.9,29.65,NNW,336,0.0,0.0,51,0.00,,,0.00,58,WeatherCatV1.15B25,2013-06-06 20:51:00,
2013-06-06 16:56:00,68.6,50.3,29.65,NNW,336,0.0,0.0,52,0.00,,,0.00,51,WeatherCatV1.15B25,2013-06-06 20:56:00,
2013-06-06 17:01:00,68.5,51.2,29.65,NNW,336,0.0,0.0,54,0.00,,,0.00,54,WeatherCatV1.15B25,2013-06-06 21:01:00,
2013-06-06 17:06:00,68.3,52.0,29.65,NNW,336,0.0,1.0,56,0.00,,,0.00,53,WeatherCatV1.15B25,2013-06-06 21:06:00,
2013-06-06 17:11:00,68.1,50.8,29.65,NNW,336,0.0,0.0,54,0.00,,,0.00,42,WeatherCatV1.15B25,2013-06-06 21:11:00,
2013-06-06 17:16:00,67.9,51.1,29.65,NNW,336,0.0,1.0,55,0.00,,,0.00,33,WeatherCatV1.15B25,2013-06-06 21:16:00,
2013-06-06 17:21:00,67.7,52.8,29.65,NNW,336,0.0,0.0,59,0.00,,,0.00,23,WeatherCatV1.15B25,2013-06-06 21:21:00,
2013-06-06 17:26:00,67.5,50.8,29.65,NNW,336,0.0,1.0,55,0.00,,,0.00,25,WeatherCatV1.15B25,2013-06-06 21:26:00,
2013-06-06 17:31:00,67.1,47.8,29.65,NNW,336,0.0,1.0,50,0.00,,,0.00,26,WeatherCatV1.15B25,2013-06-06 21:31:00,
2013-06-06 17:36:00,66.8,47.6,29.65,NNW,333,1.0,2.0,50,0.00,,,0.00,26,WeatherCatV1.15B25,2013-06-06 21:36:00,
2013-06-06 17:41:00,66.5,48.3,29.66,NNW,332,0.0,1.0,52,0.00,,,0.00,23,WeatherCatV1.15B25,2013-06-06 21:41:00,
2013-06-06 17:42:00,66.5,48.8,29.66,NNW,332,0.0,0.0,53,0.00,,,0.00,23,WeatherCatV1.15B25,2013-06-06 21:42:00,
2013-06-06 17:46:00,66.3,48.6,29.66,NNW,332,0.0,1.0,53,0.00,,,0.00,23,WeatherCatV1.15B25,2013-06-06 21:46:00,
2013-06-06 17:51:00,66.0,47.9,29.66,NNW,332,0.0,1.0,52,0.00,,,0.00,26,WeatherCatV1.15B25,2013-06-06 21:51:00,
2013-06-06 17:54:00,65.9,47.8,29.65,NNW,332,0.0,1.0,52,0.00,,,0.00,26,WeatherCatV1.15B25,2013-06-06 21:54:00,
2013-06-06 17:56:00,65.7,47.6,29.65,NNW,332,0.0,1.0,52,0.00,,,0.00,28,WeatherCatV1.15B25,2013-06-06 21:56:00,
2013-06-06 17:57:00,65.7,47.6,29.65,NNW,332,0.0,1.0,52,0.00,,,0.00,28,WeatherCatV1.15B25,2013-06-06 21:57:00,
2013-06-06 18:01:00,65.5,46.9,29.65,NNW,332,0.0,0.0,51,0.00,,,0.00,26,WeatherCatV1.15B25,2013-06-06 22:01:00,
2013-06-06 18:06:00,65.2,47.1,29.65,NNW,332,0.0,0.0,52,0.00,,,0.00,25,WeatherCatV1.15B25,2013-06-06 22:06:00,
2013-06-06 18:11:00,65.0,48.4,29.66,NNW,332,0.0,1.0,55,0.00,,,0.00,23,WeatherCatV1.15B25,2013-06-06 22:11:00,
2013-06-06 18:16:00,64.8,48.2,29.66,NNW,332,0.0,1.0,55,0.00,,,0.00,18,WeatherCatV1.15B25,2013-06-06 22:16:00,
2013-06-06 18:21:00,64.5,49.4,29.66,NNW,332,0.0,0.0,58,0.00,,,0.00,19,WeatherCatV1.15B25,2013-06-06 22:21:00,
2013-06-06 18:26:00,64.3,46.3,29.67,NNW,332,0.0,0.0,52,0.00,,,0.00,19,WeatherCatV1.15B25,2013-06-06 22:26:00,
2013-06-06 18:31:00,64.0,48.9,29.67,NNW,331,0.0,0.0,58,0.00,,,0.00,19,WeatherCatV1.15B25,2013-06-06 22:31:00,
2013-06-06 18:36:00,63.8,48.3,29.66,NNW,331,0.0,1.0,57,0.00,,,0.00,19,WeatherCatV1.15B25,2013-06-06 22:36:00,
2013-06-06 18:41:00,63.5,49.4,29.67,NNW,331,0.0,0.0,60,0.00,,,0.00,19,WeatherCatV1.15B25,2013-06-06 22:41:00,
2013-06-06 18:45:00,63.4,48.8,29.67,NNW,331,0.0,0.0,59,0.00,,,0.00,19,WeatherCatV1.15B25,2013-06-06 22:45:00,
2013-06-06 18:46:00,63.4,49.3,29.67,NNW,331,0.0,0.0,60,0.00,,,0.00,19,WeatherCatV1.15B25,2013-06-06 22:46:00,
2013-06-06 18:51:00,63.2,50.0,29.67,NNW,331,0.0,0.0,62,0.00,,,0.00,18,WeatherCatV1.15B25,2013-06-06 22:51:00,
2013-06-06 18:56:00,63.1,49.0,29.67,NNW,331,0.0,1.0,60,0.00,,,0.00,16,WeatherCatV1.15B25,2013-06-06 22:56:00,
2013-06-06 19:01:00,62.8,48.3,29.67,NW,321,0.0,2.0,59,0.00,,,0.00,16,WeatherCatV1.15B25,2013-06-06 23:01:00,
2013-06-06 19:06:00,62.6,49.4,29.68,NW,321,0.0,1.0,62,0.00,,,0.00,14,WeatherCatV1.15B25,2013-06-06 23:06:00,
2013-06-06 19:11:00,62.4,48.8,29.68,NW,321,0.0,1.0,61,0.00,,,0.00,11,WeatherCatV1.15B25,2013-06-06 23:11:00,
2013-06-06 19:16:00,62.3,50.0,29.68,NW,321,0.0,0.0,64,0.00,,,0.00,9,WeatherCatV1.15B25,2013-06-06 23:16:00,
2013-06-06 19:17:00,62.3,50.4,29.68,NW,321,0.0,0.0,65,0.00,,,0.00,9,WeatherCatV1.15B25,2013-06-06 23:17:00,
2013-06-06 19:21:00,62.1,48.9,29.68,NW,321,0.0,1.0,62,0.00,,,0.00,7,WeatherCatV1.15B25,2013-06-06 23:21:00,
2013-06-06 19:26:00,61.9,49.6,29.68,NW,321,0.0,0.0,64,0.00,,,0.00,7,WeatherCatV1.15B25,2013-06-06 23:26:00,
2013-06-06 19:29:00,61.8,48.6,29.67,NW,321,0.0,0.0,62,0.00,,,0.00,7,WeatherCatV1.15B25,2013-06-06 23:29:00,
2013-06-06 19:31:00,61.7,49.0,29.68,NW,321,0.0,1.0,63,0.00,,,0.00,5,WeatherCatV1.15B25,2013-06-06 23:31:00,
2013-06-06 19:36:00,61.6,49.7,29.67,NW,321,0.0,0.0,65,0.00,,,0.00,5,WeatherCatV1.15B25,2013-06-06 23:36:00,
2013-06-06 19:41:00,61.5,50.0,29.68,NW,321,0.0,0.0,66,0.00,,,0.00,5,WeatherCatV1.15B25,2013-06-06 23:41:00,
2013-06-06 19:46:00,61.3,49.8,29.68,NW,321,0.0,0.0,66,0.00,,,0.00,0,WeatherCatV1.15B25,2013-06-06 23:46:00,
2013-06-06 19:51:00,61.2,49.7,29.68,NW,321,0.0,0.0,66,0.00,,,0.00,0,WeatherCatV1.15B25,2013-06-06 23:51:00,
2013-06-06 19:57:00,61.0,50.4,29.68,NW,321,0.0,1.0,68,0.00,,,0.00,0,WeatherCatV1.15B25,2013-06-06 23:57:00,
2013-06-06 20:02:00,60.8,50.2,29.67,NW,321,0.0,0.0,68,0.00,,,0.00,0,WeatherCatV1.15B25,2013-06-07 00:02:00,
2013-06-06 20:06:00,60.7,50.5,29.68,NW,321,0.0,0.0,69,0.00,,,0.00,0,WeatherCatV1.15B25,2013-06-07 00:06:00,
2013-06-06 20:11:00,60.5,50.7,29.67,NW,321,0.0,0.0,70,0.00,,,0.00,0,WeatherCatV1.15B25,2013-06-07 00:11:00,
2013-06-06 20:16:00,60.3,50.5,29.67,NW,321,0.0,0.0,70,0.00,,,0.00,0,WeatherCatV1.15B25,2013-06-07 00:16:00,
2013-06-06 20:21:00,60.2,50.4,29.67,NW,321,0.0,0.0,70,0.00,,,0.00,0,WeatherCatV1.15B25,2013-06-07 00:21:00,
2013-06-06 20:26:00,60.1,49.9,29.67,NW,321,0.0,0.0,69,0.00,,,0.00,0,WeatherCatV1.15B25,2013-06-07 00:26:00,
2013-06-06 20:31:00,59.9,50.8,29.67,NW,321,0.0,0.0,72,0.00,,,0.00,0,WeatherCatV1.15B25,2013-06-07 00:31:00,
2013-06-06 20:37:00,59.8,50.8,29.67,NW,321,0.0,0.0,72,0.00,,,0.00,0,WeatherCatV1.15B25,2013-06-07 00:37:00,
2013-06-06 20:42:00,59.7,50.7,29.67,NW,321,0.0,0.0,72,0.00,,,0.00,0,WeatherCatV1.15B25,2013-06-07 00:42:00,
2013-06-06 20:47:00,59.6,51.3,29.67,NW,321,0.0,0.0,74,0.00,,,0.00,0,WeatherCatV1.15B25,2013-06-07 00:47:00,
2013-06-06 20:52:00,59.5,50.8,29.67,NW,321,0.0,0.0,73,0.00,,,0.00,0,WeatherCatV1.15B25,2013-06-07 00:52:00,
2013-06-06 20:57:00,59.4,51.1,29.67,NW,321,0.0,0.0,74,0.00,,,0.00,0,WeatherCatV1.15B25,2013-06-07 00:57:00,
2013-06-06 21:02:00,59.3,51.4,29.67,NW,321,0.0,0.0,75,0.00,,,0.00,0,WeatherCatV1.15B25,2013-06-07 01:02:00,
2013-06-06 21:07:00,59.2,51.3,29.67,NW,321,0.0,0.0,75,0.00,,,0.00,0,WeatherCatV1.15B25,2013-06-07 01:07:00,
2013-06-06 21:12:00,59.1,51.2,29.67,NW,321,0.0,0.0,75,0.00,,,0.00,0,WeatherCatV1.15B25,2013-06-07 01:12:00,
2013-06-06 21:17:00,59.0,51.4,29.68,NW,321,0.0,0.0,76,0.00,,,0.00,0,WeatherCatV1.15B25,2013-06-07 01:17:00,
2013-06-06 21:22:00,59.0,51.8,29.68,NW,321,0.0,0.0,77,0.00,,,0.00,0,WeatherCatV1.15B25,2013-06-07 01:22:00,
2013-06-06 21:27:00,59.0,52.1,29.68,NW,321,0.0,0.0,78,0.00,,,0.00,0,WeatherCatV1.15B25,2013-06-07 01:27:00,
2013-06-06 21:32:00,59.0,52.1,29.68,NW,321,0.0,0.0,78,0.00,,,0.00,0,WeatherCatV1.15B25,2013-06-07 01:32:00,
2013-06-06 21:37:00,59.0,52.1,29.68,NW,321,0.0,0.0,78,0.00,,,0.00,0,WeatherCatV1.15B25,2013-06-07 01:37:00,
2013-06-06 21:42:00,59.0,52.1,29.68,NW,321,0.0,0.0,78,0.00,,,0.00,0,WeatherCatV1.15B25,2013-06-07 01:42:00,
2013-06-06 21:47:00,59.0,52.5,29.68,NW,321,0.0,0.0,79,0.00,,,0.00,0,WeatherCatV1.15B25,2013-06-07 01:47:00,
2013-06-06 21:52:00,59.0,52.5,29.68,NW,321,0.0,0.0,79,0.00,,,0.00,0,WeatherCatV1.15B25,2013-06-07 01:52:00,
2013-06-06 21:57:00,59.0,52.8,29.68,NW,321,0.0,0.0,80,0.00,,,0.00,0,WeatherCatV1.15B25,2013-06-07 01:57:00,
2013-06-06 22:02:00,58.9,52.7,29.68,NW,321,0.0,0.0,80,0.00,,,0.00,0,WeatherCatV1.15B25,2013-06-07 02:02:00,
2013-06-06 22:07:00,58.8,52.6,29.68,NW,321,0.0,0.0,80,0.00,,,0.00,0,WeatherCatV1.15B25,2013-06-07 02:07:00,
2013-06-06 22:12:00,58.7,52.5,29.68,NW,321,0.0,0.0,80,0.00,,,0.00,0,WeatherCatV1.15B25,2013-06-07 02:12:00,
2013-06-06 22:17:00,58.7,52.5,29.68,NW,321,0.0,0.0,80,0.00,,,0.00,0,WeatherCatV1.15B25,2013-06-07 02:17:00,
2013-06-06 22:22:00,58.6,52.8,29.68,NW,321,0.0,0.0,81,0.00,,,0.00,0,WeatherCatV1.15B25,2013-06-07 02:22:00,
2013-06-06 22:27:00,58.5,52.7,29.68,NW,321,0.0,0.0,81,0.00,,,0.00,0,WeatherCatV1.15B25,2013-06-07 02:27:00,
2013-06-06 22:32:00,58.5,52.7,29.68,NW,321,0.0,0.0,81,0.00,,,0.00,0,WeatherCatV1.15B25,2013-06-07 02:32:00,
2013-06-06 22:37:00,58.4,52.9,29.68,NW,321,0.0,0.0,82,0.00,,,0.00,0,WeatherCatV1.15B25,2013-06-07 02:37:00,
2013-06-06 22:42:00,58.3,52.8,29.68,NW,321,0.0,0.0,82,0.00,,,0.00,0,WeatherCatV1.15B25,2013-06-07 02:42:00,
2013-06-06 22:47:00,58.2,52.7,29.68,NW,321,0.0,0.0,82,0.00,,,0.00,0,WeatherCatV1.15B25,2013-06-07 02:47:00,
2013-06-06 22:52:00,58.1,52.3,29.68,NW,321,0.0,0.0,81,0.00,,,0.00,0,WeatherCatV1.15B25,2013-06-07 02:52:00,
2013-06-06 22:57:00,58.0,52.5,29.67,NW,321,0.0,0.0,82,0.00,,,0.00,0,WeatherCatV1.15B25,2013-06-07 02:57:00,
2013-06-06 23:02:00,57.9,52.4,29.67,NW,321,0.0,0.0,82,0.00,,,0.00,0,WeatherCatV1.15B25,2013-06-07 03:02:00,
2013-06-06 23:07:00,57.9,52.8,29.67,NW,321,0.0,0.0,83,0.00,,,0.00,0,WeatherCatV1.15B25,2013-06-07 03:07:00,
2013-06-06 23:12:00,57.9,53.1,29.67,NW,321,0.0,0.0,84,0.00,,,0.00,0,WeatherCatV1.15B25,2013-06-07 03:12:00,
2013-06-06 23:17:00,57.8,52.7,29.67,NW,321,0.0,0.0,83,0.00,,,0.00,0,WeatherCatV1.15B25,2013-06-07 03:17:00,
2013-06-06 23:22:00,57.7,52.6,29.67,NW,321,0.0,0.0,83,0.00,,,0.00,0,WeatherCatV1.15B25,2013-06-07 03:22:00,
2013-06-06 23:27:00,57.7,52.2,29.67,NW,321,0.0,0.0,82,0.00,,,0.00,0,WeatherCatV1.15B25,2013-06-07 03:27:00,
2013-06-06 23:32:00,57.6,52.5,29.66,NW,321,0.0,0.0,83,0.00,,,0.00,0,WeatherCatV1.15B25,2013-06-07 03:32:00,
2013-06-06 23:37:00,57.5,52.4,29.66,NW,321,0.0,0.0,83,0.00,,,0.00,0,WeatherCatV1.15B25,2013-06-07 03:37:00,
2013-06-06 23:42:00,57.4,52.3,29.66,NW,321,0.0,0.0,83,0.00,,,0.00,0,WeatherCatV1.15B25,2013-06-07 03:42:00,
2013-06-06 23:47:00,57.3,52.5,29.66,NW,321,0.0,0.0,84,0.00,,,0.00,0,WeatherCatV1.15B25,2013-06-07 03:47:00,
2013-06-06 23:52:00,57.3,52.2,29.66,NW,321,0.0,0.0,83,0.00,,,0.00,0,WeatherCatV1.15B25,2013-06-07 03:52:00,
2013-06-06 23:57:00,57.2,52.1,29.66,NW,321,0.0,0.0,83,0.00,,,0.00,0,WeatherCatV1.15B25,2013-06-07 03:57:00,